MST,Max TemperatureF,Mean TemperatureF,Min TemperatureF,Max Dew PointF,MeanDew PointF,Min DewpointF,Max Humidity, Mean Humidity, Min Humidity, Max Sea Level PressureIn, Mean Sea Level PressureIn, Min Sea Level PressureIn, Max VisibilityMiles, Mean VisibilityMiles, Min VisibilityMiles, Max Wind SpeedMPH, Mean Wind SpeedMPH, Max Gust SpeedMPH,PrecipitationIn, CloudCover, Events, WindDirDegrees
2013-2-1,35,24,12,30,25,6,87,80,71,30.12,30.01,29.91,10,8,2,18,11,28,0.01,7,Snow,289
2013-2-2,37,32,26,28,24,19,82,72,60,30.24,30.14,30.04,10,9,2,30,16,41,0.00,7,Snow,287
2013-2-3,39,30,21,26,21,16,82,67,53,30.11,29.94,29.84,10,10,10,18,11,,0.00,2,,278
2013-2-4,39,28,17,27,24,13,85,71,58,29.96,29.83,29.77,10,10,10,21,8,28,0.00,6,,272
2013-2-5,37,30,24,28,23,19,82,72,59,30.02,29.91,29.77,10,10,10,15,10,21,0.00,5,,224
2013-2-6,43,36,28,27,25,21,78,66,51,30.05,29.88,29.74,10,10,10,17,9,28,0.00,1,,284
2013-2-7,44,34,25,24,22,18,75,63,38,30.14,30.07,29.97,10,10,10,16,9,,0.00,0,,222
2013-2-8,39,30,21,27,23,18,89,76,60,29.99,29.95,29.90,10,10,10,16,9,,0.00,0,,73
2013-2-9,37,28,19,25,19,14,93,79,53,29.94,29.87,29.84,10,6,0,6,2,,0.00,3,Fog,293
2013-2-10,28,22,17,23,17,9,81,74,61,30.14,29.93,29.77,10,9,2,32,17,40,0.00,8,Snow,318
2013-2-11,33,24,15,15,12,9,80,67,43,30.16,30.05,29.96,10,10,9,20,16,26,0.00,5,Snow,278
2013-2-12,39,30,21,24,19,15,75,62,45,30.03,29.96,29.85,10,10,10,17,12,24,0.00,2,,266
2013-2-13,41,36,30,28,24,15,70,61,54,29.97,29.81,29.72,10,10,9,28,17,38,0.00,6,Snow,294
2013-2-14,28,26,23,20,18,16,81,73,58,30.34,30.21,29.94,10,4,1,31,21,41,0.01,8,Snow,323
2013-2-15,35,32,30,22,17,15,61,55,50,30.32,30.21,29.97,10,10,10,20,12,25,0.00,5,,258
2013-2-16,50,40,30,28,25,22,73,59,41,30.03,29.93,29.72,10,10,9,18,12,22,0.00,0,Snow,267
2013-2-17,42,34,24,29,25,18,87,72,51,29.89,29.66,29.55,10,7,1,31,18,43,0.00,6,Snow,287
2013-2-18,21,12,1,16,9,-4,80,73,58,30.32,30.09,29.85,10,8,2,28,19,39,0.00,6,Snow,330
2013-2-19,19,10,0,6,-1,-8,80,68,49,30.33,30.20,30.07,10,10,9,32,16,43,0.00,3,,122
2013-2-20,27,16,5,9,3,-3,73,62,45,30.06,30.02,29.96,10,10,10,26,19,36,0.00,0,,127
2013-2-21,28,19,10,19,14,5,84,75,66,30.11,30.02,29.92,10,10,10,10,7,,0.00,7,,137
2013-2-22,39,26,12,19,15,7,84,62,38,30.01,29.90,29.75,10,10,10,13,7,,0.00,2,,209
2013-2-23,43,32,21,28,20,13,72,59,32,29.89,29.73,29.65,10,10,10,14,8,24,0.00,6,,290
2013-2-24,39,32,24,27,21,14,88,72,36,30.15,30.01,29.87,10,8,1,20,12,29,0.00,5,Snow,297
2013-2-25,46,37,28,19,15,12,67,46,25,30.07,29.92,29.83,10,10,10,16,11,21,0.00,0,,221
2013-2-26,39,33,27,27,22,18,75,65,51,30.19,30.02,29.83,10,10,10,22,12,28,0.00,6,,306
2013-2-27,30,24,17,20,18,12,85,73,64,30.32,30.27,30.14,10,10,10,17,12,24,0.00,6,,324
2013-2-28,43,31,19,23,19,14,85,62,31,30.29,30.25,30.18,10,10,10,18,6,25,0.00,6,,295